Location: Amsterdam
(30.7274°N, 84.4357°W)
Time: 00:47:22
(UTC+00:00)

Courier 1B Rocket - Pass Details

Date: 08 February 2026
Orbit: 920 x 1201 km, 28.2° (Epoch: 10 March)

Event Time Altitude Azimuth Distance (km) Brightness Sun altitude
Rises 04:36:52 0° 244° (WSW) 3,764 - -66.7°
Reaches altitude 10° 04:39:32 10° 240° (WSW) 2,855 - -67.1°
Maximum altitude 04:46:22 55° 164° (SSE) 1,300 - -68.3°
Drops below altitude 10° 04:53:42 10° 89° (E) 3,054 - -69.4°
Sets 04:56:39 0° 85° (E) 4,045 - -69.8°
